Albany, NY

3:23 AM EST on December 16, 2019 (GMT -0500)
Albany International

Weather History for KALB - October, 2019

Change the Weather History Date:

Sunday, October 27, 2019

  Actual Average Record
Temperature  
Mean Temperature 50 °F 46 °F  
Max Temperature 54 °F 56 °F 79 °F (1963)
Min Temperature 46 °F 36 °F 21 °F (1950)
Degree Days  
Heating Degree Days 15 19  
Month to date heating degree days 332 400  
Since 1 July heating degree days 409 567  
Cooling Degree Days 0 0  
Month to date cooling degree days 4 0  
Year to date cooling degree days 771 594  
Moisture  
Dew Point 46 °F    
Average Humidity 84    
Maximum Humidity 89    
Minimum Humidity 68    
Precipitation  
Precipitation 0.92 in 0.12 in 1.67 in (2007)
Month to date precipitation 6.71 3.22  
Year to date precipitation 37.92 32.67  
Snow  
Snow 0.00 in 0.00 in 1.70 in (2016)
Month to date snowfall 0.0 0.2  
Since 1 July snowfall 0.0 0.2  
Since 1 September snowfall 0.0 0.2  
Snow Depth 0.00 in    
Sea Level Pressure  
Sea Level Pressure 29.96 in    
Wind  
Wind Speed 4 mph ()    
Max Wind Speed 14 mph    
Max Gust Speed 19 mph    
Visibility 7.7 miles    
Events Rain    
T = Trace of Precipitation, MM = Missing Value Source: Averaged Metar Reports

Daily Weather History Graph

Daily Weather History Graph

Search for Another Location

Airport or City:

Astronomy

Oct. 27, 2019 Rise Set
Actual Time 7:22 AM EDT 5:54 PM EDT
Civil Twilight 6:53 AM EDT 6:23 PM EDT
Nautical Twilight 6:20 AM EDT 6:56 PM EDT
Astronomical Twilight 5:47 AM EDT 7:29 PM EDT
Moon 6:25 AM EDT (10/27) 6:04 PM EDT (10/27)
Length of Visible Light 11h 30m
Length of Day
10h 32m
Waning Crescent, 0% of the Moon is Illuminated
Oct 27
Waning Crescent
Oct 27
New
Nov 4
First Quarter
Nov 12
Full
Nov 19
Last Quarter

Hourly Weather History & Observations

Time (EDT) Temp. Dew Point Humidity Pressure Visibility Wind Dir Wind Speed Gust Speed Precip Events Conditions
12:51 AM 46.9 °F 41.0 °F 80% 30.23 in 10.0 mi Calm Calm - N/A   Overcast
1:51 AM 50.0 °F 39.9 °F 68% 30.22 in 10.0 mi Calm Calm - 0.00 in Rain Light Rain
2:51 AM 48.9 °F 41.0 °F 74% 30.20 in 10.0 mi SE 3.5 mph - 0.02 in Rain Light Rain
3:51 AM 48.0 °F 43.0 °F 83% 30.18 in 5.0 mi Calm Calm - 0.05 in Rain Light Rain
4:51 AM 50.0 °F 46.0 °F 86% 30.14 in 10.0 mi Variable 4.6 mph - 0.10 in   Overcast
5:15 AM 50.0 °F 46.0 °F 86% 30.13 in 10.0 mi SE 4.6 mph - N/A   Overcast
5:51 AM 50.0 °F 46.0 °F 86% 30.13 in 10.0 mi SE 6.9 mph - 0.00 in Rain Light Rain
6:01 AM 50.0 °F 46.0 °F 86% 30.12 in 10.0 mi SSE 9.2 mph - 0.00 in Rain Light Rain
6:51 AM 50.0 °F 45.0 °F 83% 30.09 in 10.0 mi SE 8.1 mph - 0.06 in Rain Light Rain
7:51 AM 48.9 °F 42.1 °F 77% 30.06 in 10.0 mi SE 8.1 mph - 0.01 in Rain Light Rain
8:51 AM 48.9 °F 43.0 °F 80% 30.05 in 8.0 mi SE 6.9 mph - 0.05 in Rain Light Rain
9:51 AM 48.0 °F 43.0 °F 83% 30.02 in 4.0 mi SE 5.8 mph - 0.12 in Rain Light Rain
10:51 AM 48.9 °F 44.1 °F 83% 30.01 in 2.5 mi Calm Calm - 0.18 in Rain Light Rain
11:15 AM 48.9 °F 45.0 °F 86% 29.99 in 3.0 mi East 3.5 mph - 0.05 in Rain Light Rain
11:51 AM 48.9 °F 45.0 °F 86% 29.94 in 3.0 mi East 6.9 mph - 0.14 in Rain Light Rain
12:42 PM 50.0 °F 46.4 °F 87% 29.88 in 2.5 mi SSE 9.2 mph - N/A Rain Rain
12:51 PM 51.1 °F 46.9 °F 86% 29.86 in 2.5 mi SE 10.4 mph - 0.09 in Rain Light Rain
1:03 PM 52.0 °F 46.9 °F 83% 29.86 in 3.0 mi SE 6.9 mph - 0.01 in Rain Light Rain
1:51 PM 52.0 °F 46.9 °F 83% 29.86 in 2.0 mi South 9.2 mph - 0.03 in Rain Light Rain
2:51 PM 54.0 °F 48.9 °F 83% 29.82 in 2.0 mi SE 10.4 mph 18.4 mph 0.04 in   Overcast
3:00 PM 53.1 °F 48.9 °F 86% 29.82 in 9.0 mi SSE 11.5 mph - N/A   Overcast
3:51 PM 53.1 °F 48.0 °F 83% 29.81 in 8.0 mi SSE 5.8 mph - 0.00 in Rain Light Rain
4:51 PM 53.1 °F 46.9 °F 80% 29.81 in 10.0 mi South 5.8 mph - 0.00 in Rain Light Rain
5:51 PM 52.0 °F 46.9 °F 83% 29.81 in 10.0 mi SSE 4.6 mph - 0.00 in   Overcast
6:51 PM 52.0 °F 46.9 °F 83% 29.82 in 10.0 mi Calm Calm - 0.00 in Rain Light Rain
7:37 PM 51.1 °F 48.0 °F 89% 29.85 in 10.0 mi NNE 3.5 mph - 0.00 in Rain Light Rain
7:51 PM 51.1 °F 48.0 °F 89% 29.86 in 10.0 mi Calm Calm - 0.00 in Rain Light Rain
8:19 PM 51.1 °F 48.0 °F 89% 29.86 in 10.0 mi NNE 3.5 mph - 0.00 in   Overcast
8:51 PM 52.0 °F 48.0 °F 86% 29.88 in 10.0 mi North 3.5 mph - 0.00 in   Overcast
8:58 PM 52.0 °F 48.0 °F 86% 29.88 in 10.0 mi North 3.5 mph - N/A   Overcast
9:26 PM 51.1 °F 48.0 °F 89% 29.89 in 10.0 mi Calm Calm - N/A   Overcast
9:51 PM 51.1 °F 48.0 °F 89% 29.90 in 7.0 mi Calm Calm - 0.00 in   Light Drizzle
10:51 PM 51.1 °F 46.9 °F 86% 29.91 in 10.0 mi NNE 3.5 mph - 0.00 in   Overcast
11:51 PM 51.1 °F 46.9 °F 86% 29.92 in 10.0 mi South 3.5 mph - N/A   Overcast